Time,TemperatureF,DewpointF,PressureIn,WindDirection,WindDirectionDegrees,WindSpeedMPH,WindSpeedGustMPH,Humidity,HourlyPrecipIn,Conditions,Clouds,dailyrainin,SoftwareType,DateUTC
2013-09-21 00:00:00,66.9,64.2,30.00,SSW,204,0.0,0.0,91,0.00,,,0.00,Wunderground v.1.15,2013-09-21 04:00:00,
2013-09-21 00:05:00,66.9,64.5,30.00,SSW,204,0.0,0.0,92,0.00,,,0.00,Wunderground v.1.15,2013-09-21 04:05:00,
2013-09-21 00:10:00,66.8,64.4,30.00,SSW,204,0.0,0.0,92,0.00,,,0.00,Wunderground v.1.15,2013-09-21 04:10:00,
2013-09-21 00:15:00,66.8,64.4,30.00,SSW,204,0.0,0.0,92,0.00,,,0.00,Wunderground v.1.15,2013-09-21 04:15:00,
2013-09-21 00:20:00,66.8,64.4,30.00,SSW,204,0.0,0.0,92,0.00,,,0.00,Wunderground v.1.15,2013-09-21 04:20:00,
2013-09-21 00:25:00,66.8,64.4,30.00,SSW,204,0.0,0.0,92,0.00,,,0.00,Wunderground v.1.15,2013-09-21 04:25:00,
2013-09-21 00:30:00,66.7,64.3,30.00,SSW,204,0.0,0.0,92,0.00,,,0.00,Wunderground v.1.15,2013-09-21 04:30:00,
2013-09-21 00:35:00,66.7,64.3,30.00,SSW,204,0.0,0.0,92,0.00,,,0.00,Wunderground v.1.15,2013-09-21 04:35:00,
2013-09-21 00:40:00,66.7,64.3,30.00,SSW,204,0.0,0.0,92,0.00,,,0.00,Wunderground v.1.15,2013-09-21 04:40:00,
2013-09-21 00:45:00,66.7,64.6,30.00,SSW,204,0.0,0.0,93,0.00,,,0.00,Wunderground v.1.15,2013-09-21 04:45:00,
2013-09-21 00:55:00,66.6,64.5,30.00,SSW,204,0.0,0.0,93,0.00,,,0.00,Wunderground v.1.15,2013-09-21 04:55:00,
2013-09-21 01:00:00,66.6,64.5,30.00,SSW,204,0.0,0.0,93,0.00,,,0.00,Wunderground v.1.15,2013-09-21 05:00:00,
2013-09-21 01:10:00,66.6,64.5,30.00,SSW,204,0.0,0.0,93,0.00,,,0.00,Wunderground v.1.15,2013-09-21 05:10:00,
2013-09-21 01:15:00,66.6,64.5,30.00,SSW,204,0.0,0.0,93,0.00,,,0.00,Wunderground v.1.15,2013-09-21 05:15:00,
2013-09-21 01:25:00,66.4,64.3,30.00,SSW,204,0.0,0.0,93,0.00,,,0.00,Wunderground v.1.15,2013-09-21 05:25:00,
2013-09-21 01:30:00,66.4,64.3,30.00,SSW,204,0.0,0.0,93,0.00,,,0.00,Wunderground v.1.15,2013-09-21 05:30:00,
2013-09-21 01:35:00,66.4,64.3,30.00,SSW,204,0.0,0.0,93,0.00,,,0.00,Wunderground v.1.15,2013-09-21 05:35:00,
2013-09-21 01:40:00,66.3,64.2,30.00,SSW,204,0.0,0.0,93,0.00,,,0.00,Wunderground v.1.15,2013-09-21 05:40:00,
2013-09-21 01:45:00,66.3,64.5,29.99,SSW,204,0.0,0.0,94,0.00,,,0.00,Wunderground v.1.15,2013-09-21 05:45:00,
2013-09-21 01:55:00,66.3,64.5,30.00,SSW,204,0.0,0.0,94,0.00,,,0.00,Wunderground v.1.15,2013-09-21 05:55:00,
2013-09-21 02:00:00,66.2,64.4,29.99,SSW,204,0.0,0.0,94,0.00,,,0.00,Wunderground v.1.15,2013-09-21 06:00:00,
2013-09-21 02:10:00,66.2,64.4,29.99,SSW,204,0.0,0.0,94,0.00,,,0.00,Wunderground v.1.15,2013-09-21 06:10:00,
2013-09-21 02:15:00,66.1,64.3,29.99,SSW,204,0.0,0.0,94,0.00,,,0.00,Wunderground v.1.15,2013-09-21 06:15:00,
2013-09-21 02:20:00,66.1,64.3,29.99,SSW,204,0.0,0.0,94,0.00,,,0.00,Wunderground v.1.15,2013-09-21 06:20:00,
2013-09-21 02:30:00,66.0,64.2,29.99,SSW,204,0.0,0.0,94,0.00,,,0.00,Wunderground v.1.15,2013-09-21 06:30:00,
2013-09-21 02:35:00,65.9,64.1,29.99,SSW,204,0.0,0.0,94,0.00,,,0.00,Wunderground v.1.15,2013-09-21 06:35:00,
2013-09-21 02:40:00,65.9,64.4,29.99,SSW,204,0.0,1.0,95,0.00,,,0.00,Wunderground v.1.15,2013-09-21 06:40:00,
2013-09-21 02:45:00,65.9,64.4,29.98,SSW,204,0.0,1.0,95,0.00,,,0.00,Wunderground v.1.15,2013-09-21 06:45:00,
2013-09-21 02:50:00,65.9,64.4,29.98,SSW,204,0.0,0.0,95,0.00,,,0.00,Wunderground v.1.15,2013-09-21 06:50:00,
2013-09-21 02:55:00,65.9,64.4,29.98,SSW,204,0.0,0.0,95,0.00,,,0.00,Wunderground v.1.15,2013-09-21 06:55:00,
2013-09-21 03:00:00,65.9,64.4,29.98,SSW,204,0.0,0.0,95,0.00,,,0.00,Wunderground v.1.15,2013-09-21 07:00:00,
2013-09-21 03:10:00,66.0,64.5,29.98,SSW,204,0.0,0.0,95,0.00,,,0.00,Wunderground v.1.15,2013-09-21 07:10:00,
2013-09-21 03:15:00,66.0,64.5,29.98,SSW,204,0.0,0.0,95,0.00,,,0.00,Wunderground v.1.15,2013-09-21 07:15:00,
2013-09-21 03:20:00,66.0,64.5,29.98,SSW,204,0.0,0.0,95,0.00,,,0.00,Wunderground v.1.15,2013-09-21 07:20:00,
2013-09-21 03:25:00,66.0,64.5,29.98,SSW,204,0.0,0.0,95,0.00,,,0.00,Wunderground v.1.15,2013-09-21 07:25:00,
2013-09-21 03:30:00,66.0,64.5,29.98,SSW,204,0.0,0.0,95,0.00,,,0.00,Wunderground v.1.15,2013-09-21 07:30:00,
2013-09-21 03:35:00,66.1,64.6,29.97,SSW,204,0.0,0.0,95,0.00,,,0.00,Wunderground v.1.15,2013-09-21 07:35:00,
2013-09-21 03:45:00,66.1,64.6,29.97,SSW,204,0.0,0.0,95,0.00,,,0.00,Wunderground v.1.15,2013-09-21 07:45:00,
2013-09-21 03:50:00,66.1,64.6,29.97,SSW,204,0.0,0.0,95,0.00,,,0.00,Wunderground v.1.15,2013-09-21 07:50:00,
2013-09-21 03:55:00,66.1,64.6,29.97,SSW,204,0.0,0.0,95,0.00,,,0.00,Wunderground v.1.15,2013-09-21 07:55:00,
2013-09-21 04:00:00,66.1,64.6,29.97,SSW,204,0.0,0.0,95,0.00,,,0.00,Wunderground v.1.15,2013-09-21 08:00:00,
2013-09-21 04:10:00,66.2,64.7,29.97,SSW,204,0.0,0.0,95,0.00,,,0.00,Wunderground v.1.15,2013-09-21 08:10:00,
2013-09-21 04:20:00,66.1,64.6,29.96,SSW,197,0.0,0.0,95,0.00,,,0.00,Wunderground v.1.15,2013-09-21 08:20:00,
2013-09-21 04:25:00,66.1,64.6,29.97,SSW,196,0.0,1.0,95,0.00,,,0.00,Wunderground v.1.15,2013-09-21 08:25:00,
2013-09-21 04:30:00,66.1,64.6,29.96,SSW,196,0.0,0.0,95,0.00,,,0.00,Wunderground v.1.15,2013-09-21 08:30:00,
2013-09-21 04:35:00,66.1,64.6,29.96,SSW,196,0.0,0.0,95,0.00,,,0.01,Wunderground v.1.15,2013-09-21 08:35:00,
2013-09-21 04:40:00,66.1,64.6,29.96,SSW,196,0.0,0.0,95,0.00,,,0.01,Wunderground v.1.15,2013-09-21 08:40:00,
2013-09-21 04:45:00,66.0,64.5,29.95,South,184,1.0,1.0,95,0.06,,,0.02,Wunderground v.1.15,2013-09-21 08:45:00,
2013-09-21 04:50:00,66.0,64.8,29.95,South,174,1.0,1.0,96,0.06,,,0.02,Wunderground v.1.15,2013-09-21 08:50:00,
2013-09-21 05:00:00,65.9,64.7,29.95,SSE,155,1.0,1.0,96,0.00,,,0.02,Wunderground v.1.15,2013-09-21 09:00:00,
2013-09-21 05:10:00,65.9,64.7,29.95,SSE,154,0.0,0.0,96,0.00,,,0.02,Wunderground v.1.15,2013-09-21 09:10:00,
2013-09-21 05:15:00,65.9,64.7,29.95,SSE,148,1.0,1.0,96,0.00,,,0.03,Wunderground v.1.15,2013-09-21 09:15:00,
2013-09-21 05:20:00,65.9,64.7,29.95,SSE,149,1.0,1.0,96,0.00,,,0.03,Wunderground v.1.15,2013-09-21 09:20:00,
2013-09-21 05:25:00,65.8,64.6,29.95,SE,146,1.0,1.0,96,0.00,,,0.03,Wunderground v.1.15,2013-09-21 09:25:00,
2013-09-21 05:35:00,65.8,64.6,29.94,SE,142,1.0,2.0,96,0.00,,,0.03,Wunderground v.1.15,2013-09-21 09:35:00,
2013-09-21 05:40:00,65.8,64.6,29.94,SE,142,0.0,0.0,96,0.00,,,0.03,Wunderground v.1.15,2013-09-21 09:40:00,
2013-09-21 05:45:00,65.8,64.6,29.94,SE,142,0.0,1.0,96,0.00,,,0.03,Wunderground v.1.15,2013-09-21 09:45:00,
2013-09-21 05:50:00,65.8,64.9,29.94,SE,142,0.0,0.0,97,0.00,,,0.03,Wunderground v.1.15,2013-09-21 09:50:00,
2013-09-21 05:55:00,65.8,64.9,29.94,SE,142,0.0,0.0,97,0.00,,,0.03,Wunderground v.1.15,2013-09-21 09:55:00,
2013-09-21 06:00:00,65.8,64.9,29.94,SE,140,1.0,1.0,97,0.00,,,0.03,Wunderground v.1.15,2013-09-21 10:00:00,
2013-09-21 06:10:00,65.8,64.9,29.93,SE,138,1.0,1.0,97,0.00,,,0.03,Wunderground v.1.15,2013-09-21 10:10:00,
2013-09-21 06:15:00,65.8,64.9,29.93,SE,137,1.0,1.0,97,0.00,,,0.03,Wunderground v.1.15,2013-09-21 10:15:00,
2013-09-21 06:20:00,65.8,64.9,29.93,SE,132,1.0,1.0,97,0.00,,,0.03,Wunderground v.1.15,2013-09-21 10:20:00,
2013-09-21 06:25:00,65.8,64.9,29.93,SE,132,1.0,1.0,97,0.00,,,0.03,Wunderground v.1.15,2013-09-21 10:25:00,
2013-09-21 06:30:00,65.8,64.9,29.93,SE,131,1.0,1.0,97,0.00,,,0.03,Wunderground v.1.15,2013-09-21 10:30:00,
2013-09-21 06:35:00,65.8,64.9,29.93,SE,131,0.0,1.0,97,0.00,,,0.03,Wunderground v.1.15,2013-09-21 10:35:00,
2013-09-21 06:40:00,65.8,64.9,29.93,SE,131,0.0,0.0,97,0.00,,,0.03,Wunderground v.1.15,2013-09-21 10:40:00,
2013-09-21 06:50:00,65.9,65.0,29.93,SE,131,0.0,0.0,97,0.00,,,0.03,Wunderground v.1.15,2013-09-21 10:50:00,
2013-09-21 06:55:00,65.9,65.0,29.93,SE,131,0.0,2.0,97,0.00,,,0.03,Wunderground v.1.15,2013-09-21 10:55:00,
2013-09-21 07:00:00,65.9,65.0,29.93,SE,128,0.0,1.0,97,0.00,,,0.03,Wunderground v.1.15,2013-09-21 11:00:00,
2013-09-21 07:10:00,65.9,65.0,29.93,SE,128,0.0,0.0,97,0.00,,,0.03,Wunderground v.1.15,2013-09-21 11:10:00,
2013-09-21 07:15:00,65.9,65.0,29.93,SE,128,0.0,0.0,97,0.00,,,0.03,Wunderground v.1.15,2013-09-21 11:15:00,
2013-09-21 07:25:00,65.9,65.0,29.93,SE,128,0.0,0.0,97,0.00,,,0.03,Wunderground v.1.15,2013-09-21 11:25:00,
2013-09-21 07:30:00,66.0,65.1,29.93,SE,128,0.0,1.0,97,0.00,,,0.03,Wunderground v.1.15,2013-09-21 11:30:00,
2013-09-21 07:35:00,66.0,65.1,29.93,SE,128,0.0,1.0,97,0.00,,,0.03,Wunderground v.1.15,2013-09-21 11:35:00,
2013-09-21 07:40:00,66.0,65.1,29.93,SE,128,0.0,0.0,97,0.00,,,0.03,Wunderground v.1.15,2013-09-21 11:40:00,
2013-09-21 07:45:00,66.0,65.1,29.93,SE,128,0.0,0.0,97,0.00,,,0.03,Wunderground v.1.15,2013-09-21 11:45:00,
2013-09-21 07:50:00,66.0,65.1,29.93,SE,128,0.0,4.0,97,0.00,,,0.03,Wunderground v.1.15,2013-09-21 11:50:00,
2013-09-21 08:00:00,66.1,65.2,29.93,SE,128,0.0,0.0,97,0.00,,,0.03,Wunderground v.1.15,2013-09-21 12:00:00,
2013-09-21 08:10:00,66.1,65.2,29.93,SE,128,0.0,0.0,97,0.00,,,0.03,Wunderground v.1.15,2013-09-21 12:10:00,
2013-09-21 08:15:00,66.2,65.3,29.93,SE,128,0.0,0.0,97,0.00,,,0.03,Wunderground v.1.15,2013-09-21 12:15:00,
2013-09-21 08:20:00,66.2,65.3,29.93,SE,128,0.0,0.0,97,0.00,,,0.03,Wunderground v.1.15,2013-09-21 12:20:00,
2013-09-21 08:25:00,66.2,65.3,29.93,SE,128,0.0,0.0,97,0.00,,,0.03,Wunderground v.1.15,2013-09-21 12:25:00,
2013-09-21 08:35:00,66.3,65.4,29.93,SE,132,1.0,2.0,97,0.00,,,0.03,Wunderground v.1.15,2013-09-21 12:35:00,
2013-09-21 08:40:00,66.5,65.6,29.93,SE,131,1.0,1.0,97,0.00,,,0.03,Wunderground v.1.15,2013-09-21 12:40:00,
2013-09-21 08:45:00,66.7,65.8,29.92,SE,130,0.0,4.0,97,0.00,,,0.03,Wunderground v.1.15,2013-09-21 12:45:00,
2013-09-21 08:50:00,66.7,65.8,29.92,SE,130,1.0,1.0,97,0.00,,,0.03,Wunderground v.1.15,2013-09-21 12:50:00,
2013-09-21 08:55:00,66.7,65.8,29.92,SE,130,1.0,1.0,97,0.00,,,0.03,Wunderground v.1.15,2013-09-21 12:55:00,
2013-09-21 09:00:00,66.9,66.0,29.93,ESE,116,1.0,1.0,97,0.00,,,0.03,Wunderground v.1.15,2013-09-21 13:00:00,
2013-09-21 09:10:00,67.2,66.3,29.93,ENE,71,1.0,1.0,97,0.00,,,0.03,Wunderground v.1.15,2013-09-21 13:10:00,
2013-09-21 09:15:00,67.2,66.3,29.93,ENE,78,1.0,4.0,97,0.00,,,0.03,Wunderground v.1.15,2013-09-21 13:15:00,
2013-09-21 09:20:00,67.4,66.5,29.92,East,79,1.0,1.0,97,0.00,,,0.03,Wunderground v.1.15,2013-09-21 13:20:00,
2013-09-21 09:25:00,67.6,66.7,29.93,East,92,1.0,4.0,97,0.00,,,0.03,Wunderground v.1.15,2013-09-21 13:25:00,
2013-09-21 09:30:00,67.8,66.9,29.93,East,92,1.0,1.0,97,0.00,,,0.03,Wunderground v.1.15,2013-09-21 13:30:00,
2013-09-21 09:35:00,68.1,67.2,29.92,East,95,1.0,1.0,97,0.00,,,0.03,Wunderground v.1.15,2013-09-21 13:35:00,
2013-09-21 09:40:00,68.4,67.5,29.92,East,95,1.0,1.0,97,0.00,,,0.03,Wunderground v.1.15,2013-09-21 13:40:00,
2013-09-21 09:45:00,68.4,67.2,29.92,SE,126,2.0,2.0,96,0.00,,,0.03,Wunderground v.1.15,2013-09-21 13:45:00,
2013-09-21 09:50:00,68.8,67.6,29.92,SE,128,2.0,2.0,96,0.00,,,0.03,Wunderground v.1.15,2013-09-21 13:50:00,
2013-09-21 10:00:00,69.0,67.5,29.92,SE,131,3.0,5.0,95,0.00,,,0.03,Wunderground v.1.15,2013-09-21 14:00:00,
2013-09-21 10:10:00,69.5,68.0,29.92,SE,141,3.0,3.0,95,0.00,,,0.03,Wunderground v.1.15,2013-09-21 14:10:00,
2013-09-21 10:15:00,70.0,68.2,29.92,SE,134,1.0,5.0,94,0.00,,,0.03,Wunderground v.1.15,2013-09-21 14:15:00,
2013-09-21 10:20:00,70.4,68.6,29.92,SE,143,2.0,4.0,94,0.00,,,0.03,Wunderground v.1.15,2013-09-21 14:20:00,
2013-09-21 10:25:00,70.7,68.3,29.92,SE,140,3.0,4.0,92,0.00,,,0.03,Wunderground v.1.15,2013-09-21 14:25:00,
2013-09-21 10:35:00,71.0,68.2,29.92,South,178,3.0,6.0,91,0.00,,,0.03,Wunderground v.1.15,2013-09-21 14:35:00,
2013-09-21 10:40:00,71.0,68.2,29.92,SSE,168,1.0,5.0,91,0.00,,,0.03,Wunderground v.1.15,2013-09-21 14:40:00,
2013-09-21 10:45:00,70.9,67.8,29.92,SSE,153,2.0,5.0,90,0.00,,,0.03,Wunderground v.1.15,2013-09-21 14:45:00,
2013-09-21 10:50:00,71.0,68.2,29.92,SSE,148,3.0,8.0,91,0.00,,,0.03,Wunderground v.1.15,2013-09-21 14:50:00,
2013-09-21 10:55:00,71.1,68.3,29.92,SE,142,2.0,8.0,91,0.00,,,0.03,Wunderground v.1.15,2013-09-21 14:55:00,
2013-09-21 11:00:00,71.2,68.4,29.92,SE,125,2.0,2.0,91,0.00,,,0.03,Wunderground v.1.15,2013-09-21 15:00:00,
2013-09-21 11:10:00,71.1,68.0,29.92,SE,129,2.0,2.0,90,0.00,,,0.03,Wunderground v.1.15,2013-09-21 15:10:00,
2013-09-21 11:15:00,71.0,67.9,29.91,SE,146,2.0,5.0,90,0.00,,,0.03,Wunderground v.1.15,2013-09-21 15:15:00,
2013-09-21 11:20:00,71.0,68.2,29.91,SSE,156,2.0,2.0,91,0.00,,,0.03,Wunderground v.1.15,2013-09-21 15:20:00,
2013-09-21 11:25:00,71.1,68.3,29.91,SSE,166,2.0,6.0,91,0.00,,,0.03,Wunderground v.1.15,2013-09-21 15:25:00,
2013-09-21 11:30:00,71.2,68.4,29.91,South,170,2.0,2.0,91,0.00,,,0.03,Wunderground v.1.15,2013-09-21 15:30:00,
2013-09-21 11:35:00,71.6,69.2,29.91,South,176,1.0,2.0,92,0.00,,,0.03,Wunderground v.1.15,2013-09-21 15:35:00,
2013-09-21 11:40:00,71.8,68.7,29.90,South,173,2.0,5.0,90,0.00,,,0.03,Wunderground v.1.15,2013-09-21 15:40:00,
2013-09-21 11:50:00,72.0,68.6,29.90,South,175,3.0,4.0,89,0.00,,,0.03,Wunderground v.1.15,2013-09-21 15:50:00,
2013-09-21 11:55:00,72.2,69.1,29.89,SE,136,2.0,5.0,90,0.00,,,0.03,Wunderground v.1.15,2013-09-21 15:55:00,
2013-09-21 12:00:00,72.6,69.2,29.89,SSE,149,4.0,4.0,89,0.00,,,0.03,Wunderground v.1.15,2013-09-21 16:00:00,
2013-09-21 12:10:00,72.9,69.5,29.89,SE,132,2.0,5.0,89,0.00,,,0.03,Wunderground v.1.15,2013-09-21 16:10:00,
2013-09-21 12:15:00,72.8,69.0,29.89,SSE,155,3.0,5.0,88,0.00,,,0.03,Wunderground v.1.15,2013-09-21 16:15:00,
2013-09-21 12:25:00,72.9,69.1,29.88,SE,130,4.0,4.0,88,0.00,,,0.03,Wunderground v.1.15,2013-09-21 16:25:00,
2013-09-21 12:30:00,73.2,69.4,29.88,SE,125,4.0,4.0,88,0.00,,,0.03,Wunderground v.1.15,2013-09-21 16:30:00,
2013-09-21 12:35:00,73.4,69.3,29.88,South,173,4.0,5.0,87,0.00,,,0.03,Wunderground v.1.15,2013-09-21 16:35:00,
2013-09-21 12:40:00,73.1,68.7,29.88,SSE,158,3.0,3.0,86,0.00,,,0.03,Wunderground v.1.15,2013-09-21 16:40:00,
2013-09-21 12:45:00,73.1,69.0,29.88,South,186,3.0,3.0,87,0.00,,,0.03,Wunderground v.1.15,2013-09-21 16:45:00,
2013-09-21 12:50:00,73.6,69.5,29.87,South,169,3.0,3.0,87,0.00,,,0.03,Wunderground v.1.15,2013-09-21 16:50:00,
2013-09-21 13:00:00,74.3,69.1,29.87,South,171,4.0,4.0,84,0.00,,,0.03,Wunderground v.1.15,2013-09-21 17:00:00,
2013-09-21 13:10:00,74.6,69.4,29.87,South,182,2.0,2.0,84,0.00,,,0.03,Wunderground v.1.15,2013-09-21 17:10:00,
2013-09-21 13:15:00,74.7,69.5,29.87,South,173,2.0,2.0,84,0.00,,,0.03,Wunderground v.1.15,2013-09-21 17:15:00,
2013-09-21 13:20:00,74.3,69.1,29.87,SE,140,2.0,2.0,84,0.00,,,0.03,Wunderground v.1.15,2013-09-21 17:20:00,
2013-09-21 13:25:00,73.9,69.1,29.86,SE,128,2.0,2.0,85,0.00,,,0.03,Wunderground v.1.15,2013-09-21 17:25:00,
2013-09-21 13:35:00,73.9,69.4,29.86,South,170,2.0,4.0,86,0.00,,,0.03,Wunderground v.1.15,2013-09-21 17:35:00,
2013-09-21 13:40:00,74.0,69.9,29.85,SSE,151,2.0,2.0,87,0.00,,,0.03,Wunderground v.1.15,2013-09-21 17:40:00,
2013-09-21 13:45:00,74.1,70.0,29.85,SE,143,1.0,2.0,87,0.00,,,0.03,Wunderground v.1.15,2013-09-21 17:45:00,
2013-09-21 13:50:00,74.3,69.8,29.85,SE,146,1.0,6.0,86,0.00,,,0.03,Wunderground v.1.15,2013-09-21 17:50:00,
2013-09-21 13:55:00,74.6,70.1,29.84,SSE,165,2.0,6.0,86,0.00,,,0.03,Wunderground v.1.15,2013-09-21 17:55:00,
2013-09-21 14:00:00,74.7,69.9,29.84,South,175,3.0,8.0,85,0.00,,,0.03,Wunderground v.1.15,2013-09-21 18:00:00,
2013-09-21 14:10:00,74.8,70.0,29.83,SSE,154,4.0,6.0,85,0.00,,,0.03,Wunderground v.1.15,2013-09-21 18:10:00,
2013-09-21 14:15:00,74.9,70.1,29.83,ESE,105,3.0,7.0,85,0.00,,,0.03,Wunderground v.1.15,2013-09-21 18:15:00,
2013-09-21 14:20:00,75.1,70.3,29.83,South,171,3.0,3.0,85,0.00,,,0.03,Wunderground v.1.15,2013-09-21 18:20:00,
2013-09-21 14:25:00,75.3,70.5,29.83,South,171,3.0,3.0,85,0.00,,,0.03,Wunderground v.1.15,2013-09-21 18:25:00,
2013-09-21 14:30:00,75.3,70.5,29.83,SE,127,2.0,2.0,85,0.00,,,0.03,Wunderground v.1.15,2013-09-21 18:30:00,
2013-09-21 14:35:00,75.3,70.1,29.83,South,188,2.0,7.0,84,0.00,,,0.03,Wunderground v.1.15,2013-09-21 18:35:00,
2013-09-21 14:40:00,75.4,70.6,29.82,SE,124,2.0,7.0,85,0.00,,,0.03,Wunderground v.1.15,2013-09-21 18:40:00,
2013-09-21 14:50:00,75.8,71.0,29.82,ESE,123,4.0,5.0,85,0.00,,,0.03,Wunderground v.1.15,2013-09-21 18:50:00,
2013-09-21 14:55:00,76.0,70.8,29.82,SSE,161,3.0,5.0,84,0.00,,,0.03,Wunderground v.1.15,2013-09-21 18:55:00,
2013-09-21 15:00:00,76.2,70.7,29.81,South,180,3.0,8.0,83,0.00,,,0.03,Wunderground v.1.15,2013-09-21 19:00:00,
2013-09-21 15:10:00,76.6,71.4,29.81,South,177,1.0,9.0,84,0.00,,,0.03,Wunderground v.1.15,2013-09-21 19:10:00,
2013-09-21 15:15:00,76.9,71.3,29.81,South,173,2.0,9.0,83,0.00,,,0.03,Wunderground v.1.15,2013-09-21 19:15:00,
2013-09-21 15:25:00,77.3,71.7,29.80,SE,135,2.0,5.0,83,0.00,,,0.03,Wunderground v.1.15,2013-09-21 19:25:00,
2013-09-21 15:30:00,77.0,71.1,29.80,South,178,3.0,7.0,82,0.00,,,0.03,Wunderground v.1.15,2013-09-21 19:30:00,
2013-09-21 15:35:00,76.8,70.9,29.80,South,179,3.0,7.0,82,0.00,,,0.03,Wunderground v.1.15,2013-09-21 19:35:00,
2013-09-21 15:40:00,76.6,71.0,29.80,SE,127,3.0,3.0,83,0.00,,,0.03,Wunderground v.1.15,2013-09-21 19:40:00,
2013-09-21 15:45:00,76.4,70.9,29.80,SE,132,2.0,7.0,83,0.00,,,0.03,Wunderground v.1.15,2013-09-21 19:45:00,
2013-09-21 15:55:00,75.9,71.1,29.79,SE,125,2.0,3.0,85,0.00,,,0.03,Wunderground v.1.15,2013-09-21 19:55:00,
2013-09-21 16:00:00,75.8,71.3,29.79,SE,125,1.0,1.0,86,0.00,,,0.03,Wunderground v.1.15,2013-09-21 20:00:00,
2013-09-21 16:10:00,75.6,71.1,29.79,SE,127,1.0,1.0,86,0.00,,,0.03,Wunderground v.1.15,2013-09-21 20:10:00,
2013-09-21 16:15:00,75.5,71.0,29.78,ESE,123,1.0,1.0,86,0.00,,,0.03,Wunderground v.1.15,2013-09-21 20:15:00,
2013-09-21 16:20:00,75.3,70.8,29.78,SE,126,1.0,1.0,86,0.00,,,0.03,Wunderground v.1.15,2013-09-21 20:20:00,
2013-09-21 16:25:00,75.3,71.2,29.78,ESE,115,1.0,1.0,87,0.00,,,0.03,Wunderground v.1.15,2013-09-21 20:25:00,
2013-09-21 16:30:00,75.2,71.1,29.78,North,10,1.0,1.0,87,0.00,,,0.03,Wunderground v.1.15,2013-09-21 20:30:00,
2013-09-21 16:35:00,75.1,71.0,29.78,SE,144,1.0,1.0,87,0.00,,,0.03,Wunderground v.1.15,2013-09-21 20:35:00,
2013-09-21 16:40:00,75.0,70.9,29.78,SE,143,1.0,1.0,87,0.00,,,0.03,Wunderground v.1.15,2013-09-21 20:40:00,
2013-09-21 16:45:00,74.9,70.8,29.78,SE,143,0.0,2.0,87,0.00,,,0.03,Wunderground v.1.15,2013-09-21 20:45:00,
2013-09-21 16:50:00,74.8,71.0,29.77,SE,141,1.0,1.0,88,0.00,,,0.03,Wunderground v.1.15,2013-09-21 20:50:00,
2013-09-21 17:00:00,74.6,70.8,29.78,East,98,0.0,2.0,88,0.00,,,0.03,Wunderground v.1.15,2013-09-21 21:00:00,
2013-09-21 17:10:00,74.6,71.1,29.77,ESE,113,0.0,0.0,89,0.00,,,0.03,Wunderground v.1.15,2013-09-21 21:10:00,
2013-09-21 17:15:00,74.5,71.0,29.77,ENE,65,0.0,0.0,89,0.00,,,0.03,Wunderground v.1.15,2013-09-21 21:15:00,
2013-09-21 17:25:00,74.4,70.9,29.77,SSE,157,0.0,0.0,89,0.00,,,0.03,Wunderground v.1.15,2013-09-21 21:25:00,
2013-09-21 17:30:00,74.3,71.2,29.77,SSE,156,0.0,0.0,90,0.00,,,0.03,Wunderground v.1.15,2013-09-21 21:30:00,
2013-09-21 17:35:00,74.2,71.1,29.77,ENE,76,0.0,0.0,90,0.00,,,0.03,Wunderground v.1.15,2013-09-21 21:35:00,
2013-09-21 17:40:00,74.0,70.9,29.77,East,86,0.0,0.0,90,0.00,,,0.03,Wunderground v.1.15,2013-09-21 21:40:00,
2013-09-21 17:45:00,73.9,71.1,29.76,East,86,0.0,0.0,91,0.00,,,0.03,Wunderground v.1.15,2013-09-21 21:45:00,
2013-09-21 17:50:00,73.7,70.9,29.76,ESE,105,1.0,5.0,91,0.00,,,0.03,Wunderground v.1.15,2013-09-21 21:50:00,
2013-09-21 18:00:00,73.3,70.8,29.76,ENE,66,1.0,1.0,92,0.00,,,0.03,Wunderground v.1.15,2013-09-21 22:00:00,
2013-09-21 18:10:00,73.0,70.9,29.76,ESE,109,1.0,5.0,93,0.00,,,0.04,Wunderground v.1.15,2013-09-21 22:10:00,
2013-09-21 18:15:00,72.8,71.0,29.76,ESE,109,1.0,5.0,94,0.06,,,0.05,Wunderground v.1.15,2013-09-21 22:15:00,
2013-09-21 18:20:00,72.7,70.9,29.76,ESE,114,1.0,4.0,94,0.06,,,0.05,Wunderground v.1.15,2013-09-21 22:20:00,
2013-09-21 18:25:00,72.6,70.8,29.76,ESE,119,1.0,4.0,94,0.09,,,0.06,Wunderground v.1.15,2013-09-21 22:25:00,
2013-09-21 18:35:00,72.4,70.9,29.77,SE,135,1.0,2.0,95,0.94,,,0.15,Wunderground v.1.15,2013-09-21 22:35:00,
2013-09-21 18:45:00,72.2,70.7,29.76,SE,135,1.0,2.0,95,0.12,,,0.17,Wunderground v.1.15,2013-09-21 22:45:00,
2013-09-21 18:50:00,72.2,71.0,29.76,SE,135,0.0,0.0,96,0.06,,,0.17,Wunderground v.1.15,2013-09-21 22:50:00,
2013-09-21 18:55:00,72.2,70.7,29.76,SSE,155,1.0,1.0,95,0.04,,,0.17,Wunderground v.1.15,2013-09-21 22:55:00,
2013-09-21 19:00:00,72.1,70.9,29.76,SSE,155,1.0,1.0,96,0.00,,,0.18,Wunderground v.1.15,2013-09-21 23:00:00,
2013-09-21 19:10:00,72.1,70.9,29.76,SSE,158,0.0,4.0,96,0.14,,,0.21,Wunderground v.1.15,2013-09-21 23:10:00,
2013-09-21 19:15:00,72.1,70.9,29.76,SSE,159,0.0,4.0,96,0.19,,,0.22,Wunderground v.1.15,2013-09-21 23:15:00,
2013-09-21 19:20:00,72.1,70.9,29.76,SSE,155,1.0,1.0,96,0.07,,,0.22,Wunderground v.1.15,2013-09-21 23:20:00,
2013-09-21 19:25:00,71.9,70.7,29.76,SSE,164,1.0,1.0,96,0.05,,,0.22,Wunderground v.1.15,2013-09-21 23:25:00,
2013-09-21 19:30:00,71.7,70.5,29.76,South,169,2.0,2.0,96,0.00,,,0.22,Wunderground v.1.15,2013-09-21 23:30:00,
2013-09-21 19:40:00,71.6,70.4,29.76,SSE,167,0.0,0.0,96,0.00,,,0.22,Wunderground v.1.15,2013-09-21 23:40:00,
2013-09-21 19:45:00,71.7,70.5,29.76,SSE,167,0.0,0.0,96,0.00,,,0.22,Wunderground v.1.15,2013-09-21 23:45:00,
2013-09-21 19:50:00,71.8,70.6,29.76,SSE,167,1.0,1.0,96,0.00,,,0.22,Wunderground v.1.15,2013-09-21 23:50:00,
2013-09-21 19:55:00,71.9,70.7,29.77,SSE,167,1.0,1.0,96,0.00,,,0.22,Wunderground v.1.15,2013-09-21 23:55:00,
2013-09-21 20:00:00,72.0,70.8,29.76,South,182,1.0,1.0,96,0.00,,,0.22,Wunderground v.1.15,2013-09-22 00:00:00,
2013-09-21 20:10:00,72.1,70.9,29.76,South,178,0.0,0.0,96,0.00,,,0.23,Wunderground v.1.15,2013-09-22 00:10:00,
2013-09-21 20:15:00,72.0,70.8,29.76,South,178,0.0,0.0,96,0.00,,,0.23,Wunderground v.1.15,2013-09-22 00:15:00,
2013-09-21 20:20:00,72.0,70.8,29.77,South,178,0.0,0.0,96,0.00,,,0.23,Wunderground v.1.15,2013-09-22 00:20:00,
2013-09-21 20:25:00,72.0,70.8,29.77,South,178,0.0,0.0,96,0.00,,,0.23,Wunderground v.1.15,2013-09-22 00:25:00,
2013-09-21 20:30:00,72.1,70.9,29.77,South,178,0.0,0.0,96,0.00,,,0.23,Wunderground v.1.15,2013-09-22 00:30:00,
2013-09-21 20:35:00,72.0,70.8,29.77,South,178,0.0,0.0,96,0.00,,,0.23,Wunderground v.1.15,2013-09-22 00:35:00,
2013-09-21 20:45:00,72.0,70.8,29.77,South,178,0.0,2.0,96,0.00,,,0.23,Wunderground v.1.15,2013-09-22 00:45:00,
2013-09-21 20:50:00,72.0,70.8,29.77,South,178,0.0,0.0,96,0.00,,,0.23,Wunderground v.1.15,2013-09-22 00:50:00,
2013-09-21 20:55:00,72.0,70.8,29.77,South,178,0.0,0.0,96,0.00,,,0.23,Wunderground v.1.15,2013-09-22 00:55:00,
2013-09-21 21:00:00,72.0,71.1,29.77,South,178,0.0,0.0,97,0.00,,,0.23,Wunderground v.1.15,2013-09-22 01:00:00,
2013-09-21 21:10:00,72.0,71.1,29.77,South,178,0.0,0.0,97,0.00,,,0.23,Wunderground v.1.15,2013-09-22 01:10:00,
2013-09-21 21:15:00,72.0,71.1,29.77,South,178,0.0,2.0,97,0.00,,,0.23,Wunderground v.1.15,2013-09-22 01:15:00,
2013-09-21 21:20:00,72.0,71.1,29.77,South,178,0.0,0.0,97,0.00,,,0.23,Wunderground v.1.15,2013-09-22 01:20:00,
2013-09-21 21:25:00,71.9,71.0,29.77,South,178,0.0,0.0,97,0.00,,,0.23,Wunderground v.1.15,2013-09-22 01:25:00,
2013-09-21 21:30:00,71.9,71.0,29.77,South,178,0.0,0.0,97,0.00,,,0.24,Wunderground v.1.15,2013-09-22 01:30:00,
2013-09-21 21:35:00,71.8,70.9,29.77,South,178,0.0,0.0,97,0.00,,,0.24,Wunderground v.1.15,2013-09-22 01:35:00,
2013-09-21 21:40:00,71.7,70.8,29.77,SSE,168,0.0,7.0,97,0.00,,,0.24,Wunderground v.1.15,2013-09-22 01:40:00,
2013-09-21 21:45:00,71.6,70.7,29.76,SSE,165,2.0,7.0,97,0.00,,,0.24,Wunderground v.1.15,2013-09-22 01:45:00,
2013-09-21 21:55:00,71.6,70.7,29.77,SSE,165,2.0,2.0,97,0.00,,,0.24,Wunderground v.1.15,2013-09-22 01:55:00,
2013-09-21 22:00:00,71.5,70.6,29.77,South,169,2.0,4.0,97,0.00,,,0.24,Wunderground v.1.15,2013-09-22 02:00:00,
2013-09-21 22:10:00,71.5,70.6,29.77,SSW,200,3.0,5.0,97,0.30,,,0.26,Wunderground v.1.15,2013-09-22 02:10:00,
2013-09-21 22:15:00,71.5,70.6,29.78,SSW,194,3.0,5.0,97,0.11,,,0.26,Wunderground v.1.15,2013-09-22 02:15:00,
2013-09-21 22:20:00,71.4,70.5,29.77,SSW,194,2.0,2.0,97,0.06,,,0.26,Wunderground v.1.15,2013-09-22 02:20:00,
2013-09-21 22:30:00,71.3,70.4,29.77,SSW,194,0.0,0.0,97,0.05,,,0.27,Wunderground v.1.15,2013-09-22 02:30:00,
2013-09-21 22:35:00,71.3,70.4,29.77,SSW,194,0.0,0.0,97,0.05,,,0.27,Wunderground v.1.15,2013-09-22 02:35:00,
2013-09-21 22:40:00,71.2,70.3,29.76,SSW,194,0.0,0.0,97,0.04,,,0.27,Wunderground v.1.15,2013-09-22 02:40:00,
2013-09-21 22:45:00,71.2,70.3,29.76,SSW,194,0.0,0.0,97,0.00,,,0.27,Wunderground v.1.15,2013-09-22 02:45:00,
2013-09-21 22:50:00,71.1,70.2,29.76,SSW,194,0.0,0.0,97,0.00,,,0.27,Wunderground v.1.15,2013-09-22 02:50:00,
2013-09-21 22:55:00,71.1,70.2,29.76,SSW,194,0.0,0.0,97,0.00,,,0.28,Wunderground v.1.15,2013-09-22 02:55:00,
2013-09-21 23:00:00,71.1,70.2,29.76,SSW,194,0.0,0.0,97,0.00,,,0.28,Wunderground v.1.15,2013-09-22 03:00:00,
2013-09-21 23:10:00,71.0,70.1,29.76,SSW,194,0.0,0.0,97,0.87,,,0.37,Wunderground v.1.15,2013-09-22 03:10:00,
2013-09-21 23:15:00,70.1,68.6,29.76,SSW,194,0.0,0.0,95,1.94,,,0.52,Wunderground v.1.15,2013-09-22 03:15:00,
2013-09-21 23:20:00,69.6,68.4,29.76,SSW,194,1.0,1.0,96,0.81,,,0.65,Wunderground v.1.15,2013-09-22 03:20:00,
2013-09-21 23:25:00,69.4,68.2,29.76,SSW,194,0.0,1.0,96,0.85,,,0.72,Wunderground v.1.15,2013-09-22 03:25:00,
2013-09-21 23:35:00,68.9,67.7,29.76,West,265,1.0,2.0,96,0.17,,,0.80,Wunderground v.1.15,2013-09-22 03:35:00,
2013-09-21 23:40:00,68.9,67.7,29.76,West,265,1.0,1.0,96,0.10,,,0.81,Wunderground v.1.15,2013-09-22 03:40:00,
2013-09-21 23:45:00,68.8,67.6,29.76,West,265,0.0,1.0,96,0.08,,,0.81,Wunderground v.1.15,2013-09-22 03:45:00,
2013-09-21 23:50:00,68.7,67.5,29.76,West,265,0.0,0.0,96,0.05,,,0.81,Wunderground v.1.15,2013-09-22 03:50:00,
2013-09-21 23:55:00,68.7,67.5,29.76,West,265,0.0,0.0,96,0.05,,,0.00,Wunderground v.1.15,2013-09-22 03:55:00,